This demonstration page uses our WeatherBlox Daily Observations layout. Learn more.

Left ArrowRight Arrow

38.20091, -84.87328

Hourly Observations for April 2, 2022

Temp ( °F °C ) Dew Point ( °F °C ) Humidity (%) Winds ( mph kmh ) Pressure ( in mb ) Visibility ( mi km ) Precip ( " mm )
12:53 am 00:53 Clear 31 -0.6 27 -2.8 85 85 Calm 30.18 1022 10 16 0.00 0.00
1:53 am 01:53 Clear 30 -1.1 27 -2.8 88 88 Calm 30.18 1022 10 16 0.00 0.00
2:53 am 02:53 Clear 30 -1.1 26 -3.3 85 85 ENE 3 6 30.16 1021 10 16 0.00 0.00
3:53 am 03:53 Clear 29 -1.7 26 -3.3 89 89 Calm 30.15 1021 10 16 0.00 0.00
4:53 am 04:53 Clear 28 -2.2 25 -3.9 88 88 Calm 30.14 1021 10 16 0.00 0.00
5:53 am 05:53 Clear 27 -2.8 24 -4.4 89 89 Calm 30.14 1021 10 16 0.00 0.00
6:53 am 06:53 Clear 28 -2.2 25 -3.9 88 88 ENE 5 7 30.13 1020 10 16 0.00 0.00
7:53 am 07:53 Sunny 26 -3.3 24 -4.4 92 92 Calm 30.13 1020 10 16 0.00 0.00
8:53 am 08:53 Sunny 35 1.7 30 -1.1 82 82 Calm 30.14 1021 10 16 0.00 0.00
9:53 am 09:53 Sunny 41 5 30 -1.1 65 65 SSE 7 11 30.13 1020 10 16 0.00 0.00
10:53 am 10:53 Sunny 46 7.8 30 -1.1 54 54 S 5 7 30.13 1020 10 16 0.00 0.00
11:53 am 11:53 Sunny 48 8.9 30 -1.1 50 50 VRB 3 6 30.11 1020 10 16 0.00 0.00
12:53 pm 12:53 Mostly Sunny 49 9.4 30 -1.1 48 48 SE 6 9 30.05 1018 10 16 0.00 0.00
1:53 pm 13:53 Mostly Cloudy 51 10.6 30 -1.1 44 44 SW 8 13 30.02 1017 10 16 0.00 0.00
2:53 pm 14:53 Mostly Cloudy 56 13.3 31 -0.6 39 39 undefined N/A 29.98 1015 10 16 0.00 0.00
3:53 pm 15:53 Cloudy 54 12.2 32 0 43 43 SW 10 17 29.96 1015 10 16 0.00 0.00
4:53 pm 16:53 Cloudy 53 11.7 31 -0.6 43 43 SSW 12 19 29.94 1014 10 16 0.00 0.00
5:53 pm 17:53 Cloudy 52 11.1 33 0.6 49 49 SSW 9 15 29.93 1014 10 16 0.00 0.00
6:53 pm 18:53 Mostly Cloudy 53 11.7 33 0.6 47 47 SSW 8 13 29.91 1013 10 16 0.00 0.00
7:53 pm 19:53 Cloudy 52 11.1 34 1.1 50 50 SSW 8 13 29.91 1013 10 16 0.00 0.00
8:53 pm 20:53 Cloudy 51 10.6 35 1.7 54 54 SW 6 9 29.92 1013 10 16 0.00 0.00
9:53 pm 21:53 Cloudy 50 10 37 2.8 61 61 SW 7 11 29.93 1014 10 16 0.00 0.00
10:53 pm 22:53 Mostly Clear 47 8.3 36 2.2 66 66 SW 9 15 29.93 1014 10 16 0.00 0.00
11:53 pm 23:53 Mostly Clear 51 10.6 39 3.9 64 64 W 12 19 29.95 1014 10 16 0.00 0.00

Powered by AerisWeather